sat.trackr.live / text

‹ back to catalog

GLOBAL-19

NORAD 55982 · 2023-041B

PAYLOAD ACTIVE UNKNOWN

§ Identity

Operator
Country
US
Launch date
2023-03-24
Launch site
RLLB
Launch vehicle
Mass (kg)
RCS (m²)

External: N2YO · Heavens-Above · Gunter

§ Orbital elements

Epoch: 2026-05-24T22:05:36.327840Z

Period
93.60 min
Inclination
42.0030°
Eccentricity
0.0006269
Mean motion
15.38534796 rev/d
Perigee alt
446.2 km
Apogee alt
454.7 km
Semi-major
6,828.6 km
B*
3.5809e-4
RAAN
337.6259°
Arg perigee
193.7104°
Mean anomaly
166.3566°
Rev number
17,834

§ Raw data

GLOBAL-191 55982U 23041B   26144.92055935  .00013697  00000+0  35809-3 0  99972 55982  42.0030 337.6259 0006269 193.7104 166.3566 15.38534796178340

JSON: /api/v1/satellites/55982 · /tle

For live sub-satellite position, see the globe view (requires WebGL).

§ Visibility from observer

Set your observer location to see the next 7 days of passes ≥ 10°. The values pass through the URL so the page stays shareable.

No JS? Fill the form by hand. The geolocation button needs JavaScript.

§ Radio — SatNOGS DB

ModeDescriptionDownlinkUplink
FM UHF Unknown 401.015 MHz

1 transmitter · refreshed weekly from db.satnogs.org